User: anonymous
Location: Nebula Knoll Observatory
(43.6666°N, 71.0000°W)
Time: 04:06:18
(UTC-04:00)
Language:

SeaSat 1 - Orbit

View from above orbital plane
View from above orbital plane
View from above satellite
View from above satellite

Ground track
Ground track

The orbit data is extracted from the following two-line orbital elements,

1 10967U 78064A   14106.49273030  .00000309  00000-0  13302-3 0  2603
2 10967 107.9901 042.4886 0000982 283.5711 205.5401 14.42977701879575
Epoch (UTC): 16 April 2014 11:49:31
Eccentricity: 0.0000982
inclination: 107.9901°
perigee height: 748 km
apogee height: 749 km
right ascension of ascending node: 42.4886°
argument of perigee: 283.5711°
revolutions per day: 14.42977701
mean anomaly at epoch: 205.5401°
orbit number at epoch: 87957

The dashed part of the orbit path shows where the satellite is in the earth's shadow,  

DLR